Time,TemperatureF,DewpointF,PressureIn,WindDirection,WindDirectionDegrees,WindSpeedMPH,WindSpeedGustMPH,Humidity,HourlyPrecipIn,Conditions,Clouds,dailyrainin,SoftwareType,DateUTC
2013-04-05 00:00:00,32.9,23.5,30.06,NW,317,0.0,0.0,68,0.00,,SKC,0.00,VWS V14.01,2013-04-05 04:00:00,
2013-04-05 00:20:00,33.1,24.0,30.03,NW,317,0.0,0.0,69,0.04,,SKC,0.04,VWS V14.01,2013-04-05 04:20:00,
2013-04-05 00:40:00,33.1,24.4,30.03,NW,317,0.0,0.0,70,0.04,,SKC,0.04,VWS V14.01,2013-04-05 04:40:00,
2013-04-05 01:00:00,33.1,24.4,30.03,NW,317,0.0,0.0,70,0.04,,SKC,0.04,VWS V14.01,2013-04-05 05:00:00,
2013-04-05 01:20:00,33.1,24.7,30.03,NW,317,0.0,0.0,71,0.04,,SKC,0.04,VWS V14.01,2013-04-05 05:20:00,
2013-04-05 01:40:00,33.1,24.7,30.03,NW,317,0.0,0.0,71,0.00,,SKC,0.04,VWS V14.01,2013-04-05 05:40:00,
2013-04-05 02:00:00,33.1,25.0,30.03,NW,317,0.0,0.0,72,0.00,,SKC,0.04,VWS V14.01,2013-04-05 06:00:00,
2013-04-05 02:20:00,33.1,25.0,30.03,NW,317,0.0,0.0,72,0.00,,SKC,0.04,VWS V14.01,2013-04-05 06:20:00,
2013-04-05 02:40:00,33.1,25.0,30.03,NW,317,0.0,0.0,72,0.00,,SKC,0.04,VWS V14.01,2013-04-05 06:40:00,
2013-04-05 03:00:00,33.1,25.4,30.03,NW,317,0.0,0.0,73,0.00,,SKC,0.04,VWS V14.01,2013-04-05 07:00:00,
2013-04-05 03:20:00,33.1,25.4,30.00,NW,317,0.0,0.0,73,0.00,,SKC,0.04,VWS V14.01,2013-04-05 07:20:00,
2013-04-05 03:40:00,33.1,25.7,30.03,NW,317,0.0,0.0,74,0.00,,SKC,0.04,VWS V14.01,2013-04-05 07:40:00,
2013-04-05 04:00:00,33.1,25.7,30.03,NW,317,0.0,0.0,74,0.00,,SKC,0.04,VWS V14.01,2013-04-05 08:00:00,
2013-04-05 04:20:00,33.1,26.0,30.00,NW,317,0.0,0.0,75,0.00,,SKC,0.04,VWS V14.01,2013-04-05 08:20:00,
2013-04-05 04:40:00,33.1,26.0,30.03,NW,317,0.0,0.0,75,0.00,,SKC,0.04,VWS V14.01,2013-04-05 08:40:00,
2013-04-05 05:00:00,33.1,26.4,30.03,NW,317,0.0,0.0,76,0.00,,SKC,0.04,VWS V14.01,2013-04-05 09:00:00,
2013-04-05 05:20:00,33.1,26.4,30.03,NW,317,0.0,0.0,76,0.00,,SKC,0.04,VWS V14.01,2013-04-05 09:20:00,
2013-04-05 06:00:00,33.1,26.7,30.03,NW,317,0.0,0.0,77,0.00,,SKC,0.04,VWS V14.01,2013-04-05 10:00:00,
2013-04-05 06:20:00,33.1,26.7,30.03,NW,317,0.0,0.0,77,0.00,,SKC,0.04,VWS V14.01,2013-04-05 10:20:00,
2013-04-05 06:40:00,33.1,26.7,30.00,NW,317,0.0,0.0,77,0.00,,SKC,0.04,VWS V14.01,2013-04-05 10:40:00,
2013-04-05 07:00:00,33.3,27.1,30.00,NW,317,0.0,0.0,78,0.00,,SKC,0.04,VWS V14.01,2013-04-05 11:00:00,
2013-04-05 07:20:00,33.3,27.1,30.03,NW,317,0.0,0.0,78,0.00,,SKC,0.04,VWS V14.01,2013-04-05 11:20:00,
2013-04-05 07:40:00,33.4,27.6,30.03,West,280,0.0,6.3,79,0.00,,SKC,0.04,VWS V14.01,2013-04-05 11:40:00,
2013-04-05 08:00:00,34.0,28.2,30.03,SW,232,0.0,0.0,79,0.04,,SKC,0.08,VWS V14.01,2013-04-05 12:00:00,
2013-04-05 08:20:00,33.8,28.0,30.03,SW,227,0.0,0.0,79,0.04,,SKC,0.08,VWS V14.01,2013-04-05 12:20:00,
2013-04-05 08:40:00,34.7,29.5,30.06,WNW,290,0.0,0.0,81,0.04,,SKC,0.08,VWS V14.01,2013-04-05 12:40:00,
2013-04-05 09:00:00,35.2,30.3,30.06,WNW,295,0.0,3.6,82,0.04,,SKC,0.08,VWS V14.01,2013-04-05 13:00:00,
2013-04-05 09:20:00,36.1,31.5,30.06,WNW,294,6.3,6.3,83,0.04,,SKC,0.12,VWS V14.01,2013-04-05 13:20:00,
2013-04-05 09:40:00,37.6,32.6,30.06,SSW,205,0.0,6.3,82,0.08,,SKC,0.16,VWS V14.01,2013-04-05 13:40:00,
2013-04-05 10:00:00,37.9,33.2,30.06,West,273,0.0,6.3,83,0.12,,SKC,0.20,VWS V14.01,2013-04-05 14:00:00,
2013-04-05 10:20:00,40.8,37.0,30.06,West,263,5.8,5.8,86,0.24,,SKC,0.31,VWS V14.01,2013-04-05 14:20:00,
2013-04-05 10:40:00,42.3,37.2,30.06,WSW,248,0.0,8.1,82,0.20,,SKC,0.31,VWS V14.01,2013-04-05 14:40:00,
2013-04-05 11:00:00,43.5,34.4,30.09,WNW,292,3.6,7.2,70,0.24,,SKC,0.39,VWS V14.01,2013-04-05 15:00:00,
2013-04-05 11:20:00,45.1,31.3,30.09,NNW,327,14.1,14.1,58,0.28,,SKC,0.47,VWS V14.01,2013-04-05 15:20:00,
2013-04-05 11:40:00,43.5,26.1,30.09,NW,308,11.0,14.1,50,0.16,,SKC,0.47,VWS V14.01,2013-04-05 15:40:00,
2013-04-05 12:00:00,44.2,25.8,30.09,WNW,298,14.5,14.5,48,0.16,,SKC,0.47,VWS V14.01,2013-04-05 16:00:00,
2013-04-05 12:20:00,46.0,23.7,30.09,North,1,2.2,14.5,41,0.08,,SKC,0.47,VWS V14.01,2013-04-05 16:20:00,
2013-04-05 12:40:00,45.0,23.8,30.09,WNW,291,10.1,11.9,43,0.00,,SKC,0.47,VWS V14.01,2013-04-05 16:40:00,
2013-04-05 13:00:00,47.8,22.9,30.09,NW,318,2.7,11.0,37,0.00,,SKC,0.47,VWS V14.01,2013-04-05 17:00:00,
2013-04-05 13:20:00,48.9,17.3,30.06,WSW,257,0.0,12.8,28,0.00,,SKC,0.47,VWS V14.01,2013-04-05 17:20:00,
2013-04-05 13:40:00,50.2,14.8,30.06,North,2,0.0,8.7,24,0.00,,SKC,0.47,VWS V14.01,2013-04-05 17:40:00,
2013-04-05 14:00:00,51.3,12.7,30.06,North,350,0.0,11.9,21,0.00,,SKC,0.47,VWS V14.01,2013-04-05 18:00:00,
2013-04-05 14:20:00,51.6,10.7,30.06,West,274,6.3,8.1,19,0.00,,SKC,0.47,VWS V14.01,2013-04-05 18:20:00,
2013-04-05 14:40:00,52.5,10.2,30.06,WSW,242,0.0,10.5,18,0.00,,SKC,0.47,VWS V14.01,2013-04-05 18:40:00,
2013-04-05 15:00:00,53.8,11.3,30.09,West,272,5.4,12.8,18,0.00,,SKC,0.47,VWS V14.01,2013-04-05 19:00:00,
2013-04-05 15:20:00,53.8,11.3,30.06,WNW,286,0.0,7.2,18,0.00,,SKC,0.47,VWS V14.01,2013-04-05 19:20:00,
2013-04-05 15:40:00,54.3,11.7,30.06,WNW,293,9.6,9.6,18,0.00,,SKC,0.47,VWS V14.01,2013-04-05 19:40:00,
2013-04-05 16:00:00,54.1,11.6,30.09,WSW,246,8.1,9.6,18,0.00,,SKC,0.47,VWS V14.01,2013-04-05 20:00:00,
2013-04-05 16:20:00,54.0,11.4,30.09,NW,322,3.6,8.3,18,0.00,,SKC,0.47,VWS V14.01,2013-04-05 20:20:00,
2013-04-05 16:40:00,54.1,11.6,30.09,WNW,285,8.7,8.7,18,0.00,,SKC,0.47,VWS V14.01,2013-04-05 20:40:00,
2013-04-05 17:20:00,53.4,11.0,30.09,NNW,346,4.9,11.0,18,0.00,,SKC,0.47,VWS V14.01,2013-04-05 21:20:00,
2013-04-05 17:40:00,52.0,9.8,30.09,WSW,257,8.3,8.3,18,0.00,,SKC,0.47,VWS V14.01,2013-04-05 21:40:00,
2013-04-05 18:00:00,51.6,10.7,30.12,WNW,302,8.7,8.7,19,0.00,,SKC,0.47,VWS V14.01,2013-04-05 22:00:00,
2013-04-05 18:20:00,51.6,10.7,30.12,WNW,284,3.1,9.6,19,0.00,,SKC,0.47,VWS V14.01,2013-04-05 22:20:00,
2013-04-05 18:40:00,50.9,10.1,30.12,WNW,296,2.7,8.1,19,0.00,,SKC,0.47,VWS V14.01,2013-04-05 22:40:00,
2013-04-05 19:00:00,50.7,10.0,30.12,WSW,247,8.7,11.0,19,0.00,,SKC,0.47,VWS V14.01,2013-04-05 23:00:00,
2013-04-05 19:20:00,49.6,9.1,30.12,West,265,3.6,8.7,19,0.00,,SKC,0.47,VWS V14.01,2013-04-05 23:20:00,
2013-04-05 19:40:00,48.2,7.9,30.12,WSW,241,0.0,4.9,19,0.00,,SKC,0.47,VWS V14.01,2013-04-05 23:40:00,
2013-04-05 20:00:00,45.9,7.1,30.15,NW,312,0.0,0.0,20,0.00,,SKC,0.47,VWS V14.01,2013-04-06 00:00:00,
2013-04-05 20:20:00,43.3,5.0,30.15,NW,312,0.0,0.0,20,0.00,,SKC,0.47,VWS V14.01,2013-04-06 00:20:00,
2013-04-05 20:40:00,42.1,5.0,30.15,NW,312,0.0,0.0,21,0.00,,SKC,0.47,VWS V14.01,2013-04-06 00:40:00,
2013-04-05 21:00:00,40.6,5.8,30.15,SSW,206,0.0,0.0,23,0.00,,SKC,0.47,VWS V14.01,2013-04-06 01:00:00,
2013-04-05 21:20:00,39.9,5.1,30.15,WNW,282,0.0,0.0,23,0.00,,SKC,0.47,VWS V14.01,2013-04-06 01:20:00,
2013-04-05 21:40:00,39.2,4.5,30.18,WNW,282,0.0,0.0,23,0.00,,SKC,0.47,VWS V14.01,2013-04-06 01:40:00,
2013-04-05 22:00:00,38.5,6.6,30.18,WNW,297,0.0,0.0,26,0.00,,SKC,0.47,VWS V14.01,2013-04-06 02:00:00,
2013-04-05 22:20:00,38.5,9.0,30.18,West,276,0.0,0.0,29,0.00,,SKC,0.47,VWS V14.01,2013-04-06 02:20:00,
2013-04-05 22:40:00,38.5,9.0,30.18,West,269,0.0,0.0,29,0.00,,SKC,0.47,VWS V14.01,2013-04-06 02:40:00,
2013-04-05 23:00:00,38.1,8.7,30.18,West,267,0.0,0.0,29,0.00,,SKC,0.47,VWS V14.01,2013-04-06 03:00:00,
2013-04-05 23:40:00,37.9,9.3,30.15,NW,314,0.0,4.0,30,0.00,,SKC,0.47,VWS V14.01,2013-04-06 03:40:00,